Location: Six Mile Lake
(44.9000°N, 79.7170°W)
Time: 23:45:07
(UTC-04:00)

KKS-1 - Visible Passes

Search period start: 28 June 2022 00:00
Search period end: 08 July 2022 00:00
Orbit: 636 x 647 km, 98.2° (Epoch: 28 June)

Date Brightness Start Highest point End Pass type
(mag) Time Alt. Az. Time Alt. Az. Time Alt. Az.
28 Jun ? 00:17:29 10° N 00:21:22 30° WNW 00:24:39 13° WSW visible
28 Jun ? 23:04:37 10° NNE 23:09:01 52° E 23:11:17 26° SSE visible
29 Jun ? 00:42:05 10° NNW 00:45:08 18° WNW 00:48:12 10° WSW visible
29 Jun ? 23:28:31 10° NNE 23:33:02 89° W 23:35:31 26° SSW visible
30 Jun ? 01:07:28 10° NW 01:08:49 11° WNW 01:10:11 10° WNW visible
30 Jun ? 22:17:13 10° NE 22:20:09 17° E 22:22:09 13° ESE visible
30 Jun ? 23:52:37 10° N 23:56:58 51° WNW 23:59:46 21° SW visible
01 Jul ? 22:40:27 10° NE 22:44:21 29° E 22:46:24 20° SE visible
02 Jul ? 00:16:55 10° N 00:20:50 30° WNW 00:24:00 14° WSW visible
02 Jul ? 23:04:05 10° NNE 23:08:28 50° E 23:10:38 27° SSE visible
03 Jul ? 00:41:29 10° NNW 00:44:36 19° WNW 00:47:41 10° WSW visible
03 Jul ? 23:27:58 10° NNE 23:32:29 89° ESE 23:34:51 28° SSW visible
04 Jul ? 01:06:48 10° NW 01:08:17 11° WNW 01:09:45 10° WNW visible
04 Jul ? 22:16:43 10° NE 22:19:35 17° E 22:21:29 13° ESE visible
04 Jul ? 23:52:03 10° N 23:56:25 52° WNW 23:59:06 22° SW visible
05 Jul ? 22:39:54 10° NE 22:43:47 28° E 22:45:42 21° SE visible
06 Jul ? 00:16:20 10° N 00:20:16 31° WNW 00:23:19 15° WSW visible
06 Jul ? 23:03:32 10° NNE 23:07:54 49° E 23:09:55 28° SSE visible
07 Jul ? 00:40:54 10° NNW 00:44:02 19° WNW 00:47:10 10° WSW visible
07 Jul ? 23:27:24 10° NNE 23:31:54 87° ESE 23:34:09 29° SSW visible
